TimeCDT,TemperatureF,Dew PointF,Humidity,Sea Level PressureIn,VisibilityMPH,Wind Direction,Wind SpeedMPH,Gust SpeedMPH,PrecipitationIn,Events,Conditions,WindDirDegrees,DateUTC
12:01 AM,41.0,24.8,53,30.23,10.0,West,12.7,18.4,N/A,,Mostly Cloudy,280,2012-10-05 05:01:00
12:21 AM,39.2,26.6,61,30.23,10.0,West,11.5,18.4,N/A,,Clear,280,2012-10-05 05:21:00
12:41 AM,37.4,26.6,65,30.23,10.0,West,10.4,-,N/A,,Clear,280,2012-10-05 05:41:00
1:01 AM,35.6,26.6,70,30.23,10.0,WNW,12.7,16.1,N/A,,Clear,290,2012-10-05 06:01:00
1:21 AM,35.6,26.6,70,30.23,10.0,WNW,10.4,-,N/A,,Clear,290,2012-10-05 06:21:00
1:41 AM,35.6,26.6,70,30.23,10.0,West,8.1,-,N/A,,Clear,280,2012-10-05 06:41:00
2:01 AM,35.6,26.6,70,30.23,10.0,WNW,11.5,16.1,N/A,,Clear,290,2012-10-05 07:01:00
2:03 AM,35.6,26.6,70,30.23,10.0,WNW,11.5,16.1,N/A,,Clear,290,2012-10-05 07:03:00
2:21 AM,35.6,26.6,70,30.23,10.0,WNW,12.7,-,N/A,,Clear,290,2012-10-05 07:21:00
2:50 AM,35.6,26.6,70,30.22,10.0,WNW,12.7,16.1,N/A,,Clear,300,2012-10-05 07:50:00
3:01 AM,35.6,26.6,70,30.22,10.0,WNW,12.7,-,N/A,,Clear,290,2012-10-05 08:01:00
3:21 AM,33.8,26.6,75,30.21,10.0,WNW,11.5,-,N/A,,Clear,290,2012-10-05 08:21:00
3:41 AM,33.8,26.6,75,30.21,10.0,WNW,11.5,-,N/A,,Clear,290,2012-10-05 08:41:00
4:01 AM,33.8,26.6,75,30.21,10.0,WNW,9.2,-,N/A,,Clear,290,2012-10-05 09:01:00
4:41 AM,33.8,24.8,70,30.21,10.0,West,11.5,-,N/A,,Clear,280,2012-10-05 09:41:00
4:51 AM,33.8,24.8,70,30.21,10.0,WNW,10.4,-,N/A,,Clear,290,2012-10-05 09:51:00
5:01 AM,32.0,24.8,75,30.21,10.0,West,8.1,-,N/A,,Clear,280,2012-10-05 10:01:00
5:15 AM,32.0,24.8,75,30.21,10.0,WNW,9.2,-,N/A,,Clear,290,2012-10-05 10:15:00
5:21 AM,32.0,24.8,75,30.22,10.0,WNW,11.5,-,N/A,,Clear,290,2012-10-05 10:21:00
5:41 AM,32.0,24.8,75,30.21,10.0,WNW,12.7,-,N/A,,Clear,290,2012-10-05 10:41:00
5:51 AM,32.0,24.8,75,30.22,10.0,WNW,11.5,-,N/A,,Clear,290,2012-10-05 10:51:00
6:01 AM,30.2,24.8,80,30.22,10.0,West,11.5,17.3,N/A,,Clear,280,2012-10-05 11:01:00
6:21 AM,30.2,24.8,80,30.22,10.0,West,11.5,18.4,N/A,,Clear,280,2012-10-05 11:21:00
6:29 AM,30.2,24.8,80,30.21,10.0,WNW,10.4,-,N/A,,Clear,290,2012-10-05 11:29:00
6:46 AM,30.2,24.8,80,30.21,10.0,WNW,11.5,18.4,N/A,,Clear,300,2012-10-05 11:46:00
7:01 AM,30.2,24.8,80,30.22,10.0,WNW,11.5,-,N/A,,Clear,300,2012-10-05 12:01:00
7:21 AM,30.2,23.0,75,30.22,10.0,West,11.5,17.3,N/A,,Clear,280,2012-10-05 12:21:00
7:41 AM,30.2,23.0,75,30.21,10.0,WNW,16.1,-,N/A,,Clear,290,2012-10-05 12:41:00
8:01 AM,30.2,23.0,75,30.21,10.0,WNW,12.7,18.4,N/A,,Clear,290,2012-10-05 13:01:00
8:21 AM,30.2,23.0,75,30.22,10.0,West,13.8,18.4,N/A,,Clear,280,2012-10-05 13:21:00
8:41 AM,30.2,23.0,75,30.23,10.0,West,12.7,17.3,N/A,,Clear,280,2012-10-05 13:41:00
9:01 AM,32.0,23.0,69,30.23,10.0,West,13.8,20.7,N/A,,Clear,280,2012-10-05 14:01:00
9:21 AM,33.8,23.0,65,30.23,10.0,WNW,15.0,20.7,N/A,,Clear,290,2012-10-05 14:21:00
10:01 AM,35.6,23.0,60,30.24,10.0,WNW,18.4,24.2,N/A,,Clear,290,2012-10-05 15:01:00
10:21 AM,35.6,23.0,60,30.23,10.0,WNW,16.1,21.9,N/A,,Clear,290,2012-10-05 15:21:00
10:36 AM,37.4,23.0,56,30.23,10.0,WNW,17.3,23.0,N/A,,Clear,300,2012-10-05 15:36:00
10:41 AM,37.4,23.0,56,30.23,10.0,NW,16.1,-,N/A,,Clear,310,2012-10-05 15:41:00
11:01 AM,37.4,23.0,56,30.23,10.0,WNW,18.4,23.0,N/A,,Scattered Clouds,290,2012-10-05 16:01:00
11:21 AM,39.2,23.0,52,30.23,10.0,WNW,18.4,23.0,N/A,,Scattered Clouds,290,2012-10-05 16:21:00
11:41 AM,39.2,23.0,52,30.23,10.0,WNW,19.6,24.2,N/A,,Clear,300,2012-10-05 16:41:00
12:21 PM,41.0,24.8,53,30.23,10.0,NW,17.3,23.0,N/A,,Scattered Clouds,310,2012-10-05 17:21:00
12:23 PM,41.0,24.8,53,30.22,10.0,WNW,16.1,23.0,N/A,,Scattered Clouds,300,2012-10-05 17:23:00
12:41 PM,42.8,24.8,49,30.22,10.0,NW,18.4,26.5,N/A,,Scattered Clouds,310,2012-10-05 17:41:00
12:57 PM,42.8,24.8,49,30.22,10.0,WNW,20.7,26.5,N/A,,Scattered Clouds,300,2012-10-05 17:57:00
1:01 PM,42.8,24.8,49,30.23,10.0,NW,18.4,26.5,N/A,,Scattered Clouds,310,2012-10-05 18:01:00
1:21 PM,42.8,24.8,49,30.22,10.0,WNW,17.3,28.8,N/A,,Mostly Cloudy,300,2012-10-05 18:21:00
1:41 PM,42.8,24.8,49,30.22,10.0,WNW,16.1,23.0,N/A,,Mostly Cloudy,300,2012-10-05 18:41:00
2:01 PM,42.8,23.0,46,30.21,10.0,WNW,19.6,31.1,N/A,,Mostly Cloudy,290,2012-10-05 19:01:00
2:21 PM,44.6,23.0,43,30.22,10.0,NW,15.0,25.3,N/A,,Overcast,310,2012-10-05 19:21:00
2:28 PM,44.6,23.0,43,30.22,10.0,NW,16.1,24.2,N/A,,Overcast,320,2012-10-05 19:28:00
2:41 PM,42.8,23.0,46,30.22,10.0,NW,18.4,27.6,N/A,,Overcast,310,2012-10-05 19:41:00
2:53 PM,42.8,23.0,46,30.22,10.0,NW,17.3,26.5,N/A,,Overcast,320,2012-10-05 19:53:00
3:01 PM,42.8,23.0,46,30.22,10.0,NW,18.4,26.5,N/A,,Overcast,320,2012-10-05 20:01:00
3:21 PM,42.8,23.0,46,30.21,10.0,NW,21.9,31.1,N/A,,Overcast,310,2012-10-05 20:21:00
3:41 PM,42.8,24.8,49,30.21,10.0,WNW,17.3,24.2,N/A,,Overcast,300,2012-10-05 20:41:00
4:01 PM,42.8,24.8,49,30.21,10.0,NW,20.7,24.2,N/A,,Overcast,310,2012-10-05 21:01:00
4:21 PM,42.8,23.0,46,30.21,10.0,NW,18.4,28.8,N/A,,Overcast,310,2012-10-05 21:21:00
4:36 PM,42.8,23.0,46,30.21,10.0,NW,15.0,27.6,N/A,,Overcast,320,2012-10-05 21:36:00
4:43 PM,42.8,23.0,46,30.21,10.0,NW,17.3,24.2,N/A,,Overcast,320,2012-10-05 21:43:00
5:01 PM,42.8,23.0,46,30.21,10.0,NW,17.3,26.5,N/A,,Overcast,310,2012-10-05 22:01:00
5:17 PM,41.0,24.8,53,30.22,10.0,NW,19.6,27.6,N/A,,Overcast,320,2012-10-05 22:17:00
5:21 PM,41.0,24.8,53,30.22,10.0,NW,17.3,27.6,N/A,,Overcast,310,2012-10-05 22:21:00
5:41 PM,41.0,23.0,49,30.22,10.0,NW,17.3,27.6,N/A,,Overcast,310,2012-10-05 22:41:00
6:01 PM,39.2,23.0,52,30.22,10.0,NNW,19.6,26.5,N/A,,Overcast,330,2012-10-05 23:01:00
6:03 PM,39.2,23.0,52,30.22,10.0,NNW,17.3,26.5,N/A,,Overcast,330,2012-10-05 23:03:00
6:08 PM,39.2,23.0,52,30.22,10.0,NNW,16.1,26.5,N/A,,Overcast,330,2012-10-05 23:08:00
6:41 PM,39.2,21.2,49,30.23,10.0,NW,19.6,26.5,N/A,,Overcast,310,2012-10-05 23:41:00
6:52 PM,39.2,23.0,52,30.23,10.0,NW,18.4,31.1,N/A,,Overcast,320,2012-10-05 23:52:00
7:01 PM,39.2,21.2,49,30.24,10.0,NW,19.6,25.3,N/A,,Overcast,320,2012-10-06 00:01:00
7:08 PM,39.2,23.0,52,30.24,10.0,NW,13.8,24.2,N/A,,Overcast,320,2012-10-06 00:08:00
7:21 PM,39.2,23.0,52,30.24,10.0,NW,15.0,24.2,N/A,,Overcast,310,2012-10-06 00:21:00
7:41 PM,39.2,24.8,56,30.24,10.0,NW,13.8,25.3,N/A,,Overcast,310,2012-10-06 00:41:00
7:52 PM,39.2,23.0,52,30.24,10.0,NW,15.0,26.5,N/A,,Overcast,320,2012-10-06 00:52:00
8:01 PM,39.2,23.0,52,30.24,10.0,NW,18.4,24.2,N/A,,Overcast,310,2012-10-06 01:01:00
8:09 PM,39.2,24.8,56,30.25,10.0,NW,16.1,23.0,N/A,,Overcast,320,2012-10-06 01:09:00
8:21 PM,39.2,24.8,56,30.25,10.0,NW,19.6,26.5,N/A,,Overcast,320,2012-10-06 01:21:00
8:41 PM,39.2,24.8,56,30.25,10.0,NW,17.3,25.3,N/A,,Overcast,310,2012-10-06 01:41:00
9:01 PM,39.2,24.8,56,30.26,10.0,NW,19.6,27.6,N/A,,Overcast,320,2012-10-06 02:01:00
9:21 PM,37.4,26.6,65,30.26,10.0,NW,16.1,26.5,N/A,,Overcast,320,2012-10-06 02:21:00
9:47 PM,37.4,26.6,65,30.26,10.0,NNW,18.4,26.5,N/A,,Overcast,330,2012-10-06 02:47:00
10:06 PM,37.4,26.6,65,30.26,10.0,NNW,17.3,24.2,N/A,,Overcast,340,2012-10-06 03:06:00
10:36 PM,35.6,26.6,70,30.26,10.0,NNW,16.1,23.0,N/A,,Scattered Clouds,330,2012-10-06 03:36:00
11:16 PM,35.6,28.4,75,30.26,10.0,NW,12.7,21.9,N/A,,Overcast,320,2012-10-06 04:16:00
11:21 PM,35.6,28.4,75,30.26,10.0,NW,13.8,-,N/A,,Overcast,310,2012-10-06 04:21:00
11:29 PM,35.6,28.4,75,30.26,10.0,NW,13.8,20.7,N/A,,Overcast,320,2012-10-06 04:29:00
11:41 PM,35.6,26.6,70,30.26,10.0,NW,15.0,24.2,N/A,,Mostly Cloudy,320,2012-10-06 04:41:00